sat.trackr.live / text

‹ back to catalog

STARLINK-30959

NORAD 58442 · 2023-183F

PAYLOAD ACTIVE UNKNOWN

§ Identity

Operator
Country
US
Launch date
2023-11-28
Launch site
AFETR
Launch vehicle
Mass (kg)
RCS (m²)

Purposes: comms

External: N2YO · Heavens-Above · Gunter

§ Orbital elements

Epoch: 2026-09-20T09:13:10.945344Z

Period
94.27 min
Inclination
43.0046°
Eccentricity
0.0001446
Mean motion
15.27574350 rev/d
Perigee alt
482.1 km
Apogee alt
484.1 km
Semi-major
6,861.2 km
B*
9.9491e-6
RAAN
21.8084°
Arg perigee
284.0265°
Mean anomaly
76.0426°
Rev number
15,651

§ Raw data

STARLINK-309591 58442U 23183F   26263.38415446  .00000012  00000+0  99491-5 0  99932 58442  43.0046  21.8084 0001446 284.0265  76.0426 15.27574350156519

JSON: /api/v1/satellites/58442 · /tle

For live sub-satellite position, see the globe view (requires WebGL).

§ Visibility from observer

Set your observer location to see the next 7 days of passes ≥ 10°. The values pass through the URL so the page stays shareable.

No JS? Fill the form by hand. The geolocation button needs JavaScript.